STARLINK-4089, 52831

Orbit data source: Space-Track

STARLINK-4089, 52831 is a payload satellite owned by SpaceX/Seattle (US) in LEO that was launched on Fri, 17 Jun 2022 UTC via an FALCON 9 launch vehicle from the Air Force Eastern Test Range (AFETR). Payload-class satellites include a variety of spacecraft equipped with specific instruments for various scientific and technological missions. These include communications satellites like Starlink; space stations such as the ISS; scientific satellites like the Hubble; Earth observation satellites from companies like Planet Labs, Umbra, and HawkEye 360; GPS; miniature CubeSats for education and research; and military/defense satellites.

Loading next visibility...
Identifier
52831, 2022-062B
Orbit
LEO
Country
Flag of USUS
Related business
Manufacturer
SpaceX/Seattle
Mission
Operational Commercial Communications
Bus & Motor
STARLINK, Unknown motor
Mass
297 kg wet, ~275 kg dry
Launch date (UTC)
2022-06-17 (4 years ago)
Launch vehicle
FALCON 9
Launch site
Air Force Eastern Test Range (AFETR)
Object type
Payload
Rocket body
Debris
Shape & HBR
Box + 1 Pan, 10.1 m
Radar Cross Section
13.562 m², Large (>1 m²)

Expand to show TLE details & history
Last TLE update: 3 days ago

TLE from 3 days ago
0 STARLINK-4089
1 52831U 22062B   26170.65309909  .00000303  00000-0  37151-4 0  9995
2 52831  53.1619 296.2755 0001284  86.5746 273.5392 15.08831588221174
Epoch: 2026-06-19T15:40Z
TLE epoch observation values (Epoch: 2026-06-19T15:40:27.761Z)
Latitude
-0.00004°
Longitude
153.28081°
Altitude
540.606 km
Speed
7.593 km/s
True Right ascension
19h 45m 06s
True Declination
0° 00' 00"
Sunlit
Object was in full shadow at epoch
Visualization orbit readout
Latitude
Unknown
Longitude
Unknown
Altitude
Unknown
Speed
Unknown
Apparent Right ascension
Unknown
Apparent Declination
Unknown
Sunlit
N/A
Visualization observer readout
Local Sidereal Time
21:25:40
Azimuth
Unknown
Elevation
Unknown
Doppler factor
Unknown
Orbital elements
Apogee altitude
540.911 km
Perigee altitude
539.135 km
Semi-major axis
6,918.16 km
Eccentricity
0.00013
Inclination
53.1619°
RAAN
296.2755°
Arg. of periapsis
86.5746°
True anomaly
273.52451°
Mean anomaly
273.5392°
Eccentric anomaly
273.53186°
Mean motion
3.77187 °/min
Orbital period
95.44 mins
BSTAR
0.000037151
Loading maneuver chart data...
Computing Atmospheric mass density...
Loading historical data...
Loading historical data...
Loading historical data...
Loading historical data...
Loading historical data...
Loading historical data...
Loading historical data...

Documentation

Showing up to 5 results
|